#timestamp,LO_Frequency,Hit,StdDev 
1592233215.7,286047000.0,N
1592233235.5,286047002.3,N
1592233255.3,286047001.6,N
1592233275.2,286047002.1,N
1592233295.0,286047002.6,N
1592233295.9,286047002.6,N
1592233315.8,286047002.1,N
1592233335.6,286047001.8,N
1592233355.4,286047001.4,N
1592233375.3,286047002.6,N
1592233395.1,286047000.5,N
1592233415.8,286047002.8,N
1592233435.7,286047000.5,N
1592233455.5,286047000.9,N
1592233475.4,286047002.6,N
1592233495.2,286047001.6,N
1592233515.0,286047002.2,N
1592233515.9,286047002.2,N
1592233535.8,286046999.7,N
1592233555.6,286047002.3,N
1592233575.5,286047004.0,Y
1592233595.3,286047002.7,P
1592233615.1,286047002.7,P
1592233635.9,286047002.3,P
1592233655.7,286047002.5,Y
1592233675.6,286046998.4,P
1592233695.4,286046996.7,N
1592233715.2,286046996.7,N
1592233735.1,286046997.2,N
1592233736.0,286046997.2,N
1592233755.8,286046997.9,N
1592233775.6,286046994.9,N
1592233795.5,286046997.0,N
1592233815.3,286046999.1,N
1592233835.2,286046999.3,N
1592233855.9,286046999.1,N
1592233875.7,286046997.1,N
1592233895.6,286046998.9,N
1592233915.4,286046998.5,N
1592233935.2,286046999.5,N
1592233955.1,286046999.1,N
1592233956.0,286046999.1,N
1592233975.8,286046999.1,N
1592233995.7,286046999.0,N
1592234015.5,286046999.0,N
1592234035.3,286047000.6,N
1592234055.2,286046998.2,N
1592234075.0,286046998.6,N
1592234075.9,286046998.6,N
1592234095.8,286047000.7,N
1592234115.6,286047001.0,N
1592234135.4,286047000.3,N
1592234155.3,286047001.1,N
1592234175.1,286047001.2,N
1592234195.9,286046998.2,N
1592234215.7,286047000.1,N
1592234235.5,286047000.6,N
1592234255.4,286046998.5,N
1592234275.2,286046998.9,N
1592234295.0,286047000.8,N
1592234295.9,286047000.8,N
1592234315.8,286047000.7,N
1592234335.6,286047001.0,N
1592234355.5,286046999.8,N
1592234375.3,286047000.6,N
1592234395.1,286047001.0,N
1592234415.9,286046998.7,N
1592234435.7,286046998.8,N
1592234455.6,286046998.2,N
1592234475.4,286046998.8,N
1592234495.2,286047000.6,N
1592234515.1,286046999.4,N
1592234516.0,286046999.4,N
1592234535.8,286046998.3,N
1592234555.6,286047000.6,N
1592234575.5,286046998.3,N
1592234595.3,286046998.9,N
1592234615.2,286047001.2,N
1592234635.9,286046998.1,N
1592234655.7,286047001.0,N
1592234675.6,286047000.9,N
1592234695.4,286047000.1,N
1592234715.2,286047000.4,N
1592234735.1,286047000.6,N
1592234736.0,286047000.6,N
1592234755.8,286047000.4,N
1592234775.7,286047000.0,N
1592234795.5,286047000.9,N
1592234815.3,286047000.7,N
1592234835.2,286047000.8,N
1592234855.0,286046998.5,N
1592234855.9,286046998.5,N
1592234875.8,286047000.6,N
1592234895.6,286047000.9,N
1592234915.4,286047000.1,N
1592234935.3,286047000.4,N
1592234955.1,286046998.6,N
1592234975.9,286046998.3,N
1592234995.7,286046998.8,N
1592235015.5,286046999.6,N
1592235035.4,286046996.9,Y
1592235055.2,286046997.8,P
1592235075.0,286046995.2,P
1592235076.0,286046995.2,N
1592235095.8,286046995.8,N
1592235115.6,286046995.8,N
1592235135.5,286046995.7,N
1592235155.3,286046997.4,N
1592235175.1,286046995.8,N
1592235195.9,286046997.7,N
1592235215.7,286046994.9,Y
1592235235.6,286046998.6,P
1592235255.4,286046996.5,P
1592235275.2,286046995.4,P
1592235295.1,286046995.3,Y
1592235296.0,286046995.3,P
1592235315.8,286047002.3,P
1592235335.7,286047000.2,N
1592235355.5,286047000.2,N
1592235375.3,286047002.4,N
1592235395.2,286047000.1,N
1592235415.0,286047002.8,N
1592235415.9,286047002.8,N
1592235435.8,286047000.2,N
1592235455.6,286047002.6,N
1592235475.4,286047002.7,N
1592235495.3,286047000.5,N
1592235515.1,286047000.8,N
1592235535.9,286046998.4,N
1592235555.7,286046996.6,N
1592235575.5,286046998.7,N
1592235595.4,286046998.4,N
1592235615.2,286047000.8,N
1592235635.1,286046998.5,N
1592235636.0,286046998.5,N
1592235655.8,286046998.1,N
1592235675.6,286046998.5,N
1592235695.5,286047000.6,N
1592235715.3,286047000.9,N
1592235735.2,286047000.9,N
1592235755.9,286046998.2,N
1592235775.7,286047001.1,N
1592235795.6,286046999.0,N
1592235815.4,286046999.0,N
1592235835.3,286046999.4,N
1592235855.1,286046996.5,N
1592235856.0,286046996.5,N
1592235875.8,286046998.8,N
1592235895.7,286046999.1,N
1592235915.5,286046998.5,N
1592235935.3,286047000.8,N
1592235955.2,286046998.1,N
1592235975.0,286047001.2,N
1592235975.9,286047001.2,N
1592235995.8,286047001.1,N
1592236015.6,286047001.0,N
1592236035.4,286046999.9,N
1592236055.3,286047000.4,N
1592236075.1,286047001.0,N
1592236095.9,286046999.8,N
1592236115.7,286047002.4,N
1592236135.5,286046999.7,N
1592236155.4,286047000.1,N
1592236175.2,286046999.7,N
1592236195.1,286047002.6,N
1592236196.0,286047002.6,N
1592236215.8,286047000.4,N
1592236235.6,286046999.9,N
1592236255.5,286047001.9,N
1592236275.3,286047001.7,N
1592236295.1,286047001.3,N
1592236315.9,286047004.2,N
1592236335.7,286047003.7,N
1592236355.6,286047002.9,N
1592236375.4,286047003.8,N
1592236395.2,286047001.4,N
1592236415.1,286047001.8,N
1592236416.0,286047001.8,N
1592236435.8,286047004.3,N
1592236455.7,286047002.6,N
1592236475.5,286047002.4,N
1592236495.3,286047001.5,N
1592236515.2,286047001.8,N
1592236535.0,286047002.1,N
1592236535.9,286047002.1,N
1592236555.8,286047003.4,N
1592236575.6,286047005.3,Y
1592236595.4,286047001.5,P
1592236615.3,286047001.5,P
1592236635.1,286047003.8,P
1592236655.8,286047001.3,N
1592236675.7,286047001.6,N
1592236695.5,286047001.4,N
1592236715.4,286047001.6,N
1592236735.2,286047002.0,N
1592236755.0,286047004.4,Y
1592236755.9,286047004.4,P
1592236775.8,286046999.8,N
1592236795.6,286047002.8,N
